Cloud_Cover
29 17 22 12 19 6 1 0 1 0 0 0 0 0 0 0 2 4 4 5 5 0 1 1 0 0 0 0 0 0 0 0 0 0 0 0 0 0 0 0 0 0 0
14 80 25 8 4 0 0 0 0 0 0 0 3 2 4 3 4 5 5 5 5 5 5 5 5 5 4 3 0 0 0 0 0 0 0 0 0 0 0 0 0 0 0
36 20 25 27 25 4 0 0 3 0 5 5 5 5 5 5 5 5 4 5 5 5 5 1 1 4 2 0 0 0 0 0 1 5 0 3 5 1 0 1 1 0 0
10 18 24 20 15 8 11 6 5 5 3 3 2 3 2 2 5 13 13 27 49 29 5 5 5 2 5 5 5 5 1 0 4 0 0 5 5 5 5 5 5 5 5
22 22 13 20 7 17 24 5 4 2 10 24 7 5 8 80 81 42 39 45 41 10 5 5 8 5 5 5 5 5 5 5 5 5 4 5 5 5 25 5 5 5 5
24 27 32 32 17 18 13 5 5 92 93 88 64 88 73 48 55 6 5 8 6 5 5 5 5 5 5 5 5 5 5 5 5 5 5 27 84 56 7 17 5 5 5
34 30 26 25 46 79 83 79 74 66 40 21 22 23 15 6 5 5 5 5 5 5 5 5 5 5 5 5 5 5 14 96 99 91 97 100 100 100 100 15 5 81 96
14 28 17 35 23 10 30 19 54 46 48 65 80 87 71 75 33 52 9 8 16 35 6 5 5 5 13 7 13 31 54 39 54 55 80 100 100 100 100 100 100 83 90
13 20 77 100 100 87 60 27 44 62 61 60 59 57 24 6 6 5 5 5 5 6 32 70 44 11 39 34 74 96 100 100 100 99 62 78 100 100 100 100 100 99 82
65 58 74 100 100 96 99 98 44 43 24 21 64 40 37 26 61 91 57 78 7 5 81 100 95 60 100 92 63 87 100 100 100 100 100 100 100 100 100 93 100 99 39
86 76 75 99 100 100 100 99 100 100 100 100 100 100 99 74 28 73 99 84 62 100 100 74 99 100 100 100 100 100 100 100 100 98 87 98 100 98 97 92 48 96 10
100 100 100 100 100 100 100 100 100 100 100 96 100 100 100 100 100 100 100 100 100 100 100 86 98 85 32 47 83 98 98 78 46 8 5 5 7 5 74 7 13 18 77
93 36 43 10 46 87 54 83 73 61 34 69 71 80 100 100 86 47 100 60 77 100 100 98 100 100 100 100 100 99 35 21 5 5 5 10 10 62 92 100 100 46 67
100 100 100 100 100 100 100 82 96 98 100 100 100 100 100 100 100 100 99 86 86 49 73 100 100 100 100 100 100 100 100 100 100 50 75 97 100 100 12 7 7 6 48
100 100 100 100 100 100 100 100 100 100 100 100 100 100 100 100 100 100 100 100 100 100 100 100 100 78 85 100 91 97 95 65 100 100 100 65 81 56 63 86 24 97 89
90 100 100 100 100 100 100 100 100 100 100 100 100 100 78 54 34 63 81 100 100 100 100 99 100 99 100 100 87 100 100 98 100 100 100 96 100 100 100 100 100 93 100
100 96 100 100 100 100 100 100 100 100 100 100 95 37 69 6 7 5 5 25 51 100 100 93 100 98 99 85 100 77 80 100 100 100 100 100 91 100 100 100 100 100 100
100 100 100 99 93 100 100 100 100 100 92 78 17 49 45 7 79 5 5 4 5 4 40 61 100 100 100 100 100 100 38 100 100 100 100 100 100 100 100 100 100 100 100
88 89 23 41 34 46 60 83 100 93 84 31 64 62 92 100 74 6 5 5 7 20 15 34 2 8 88 100 100 100 100 100 100 100 100 100 100 100 100 100 100 100 100
99 97 38 74 67 80 89 69 89 100 88 83 45 57 86 7 5 31 28 36 19 7 19 84 58 69 100 100 100 100 100 100 100 100 100 100 100 100 100 100 100 100 100
100 100 94 98 100 94 86 100 100 100 100 100 36 42 6 91 92 7 71 99 100 94 68 66 92 100 34 100 100 100 100 100 100 100 100 100 100 100 100 100 100 100 100
100 88 100 100 100 75 64 100 85 100 54 11 63 65 51 43 25 100 100 100 100 100 100 100 89 99 100 90 100 100 100 100 100 100 100 100 100 100 100 100 100 100 100
100 100 100 100 93 50 93 56 67 74 69 78 55 78 11 72 76 71 81 100 100 100 100 100 100 100 100 55 100 100 100 100 100 100 100 100 100 100 100 100 100 100 100
88 100 100 100 100 96 92 90 100 100 100 100 60 63 85 100 100 78 100 100 100 100 100 96 56 57 100 100 100 100 100 100 100 100 100 100 100 100 100 100 100 100 100
96 81 95 83 84 100 96 100 96 96 92 93 100 100 49 67 100 100 100 69 53 96 100 100 100 100 100 100 100 100 100 100 100 100 100 100 100 100 100 100 100 100 100
77 88 71 69 84 83 77 50 100 98 100 100 100 53 99 98 100 100 100 97 100 100 100 100 100 100 100 100 100 100 100 100 100 100 100 100 100 100 100 100 100 100 100